Find Starlink 5256

NORAD ID: 54175 Int'l Des: 2022-141 Owner: SPXS Country: US Constellation: starlink operational
LEOCIRCULAR

当前视图

正在加载3D地球...

About Starlink 5256

Starlink 5256 (NORAD 54175) is a starlink constellation satellite (v1.5) launched Oct 28, 2022 by SPXS of US. It operates in LEO, CIRCULAR orbit with a mass of 305.00 kg.

关于 Starlink 5256

正在加载描述...

即将过境

Passes for default location (London). Set your location on the main map for personalized predictions.

高度历史

Loading altitude history...

两行轨道根数

1 54175U 22141U 26167.56097964 .00000234 00000-0 32796-4 0 9990
2 54175 53.1609 280.1891 0001236 91.3381 268.7752 15.08830593200780
Epoch: Jun 16, 2026 • Age: 18 hours

当前状态

高度 539.8 km
速度 7.59 km/s
星下点 10.75°N, 85.67°W
发射日期 Oct 28, 2022
运行时间 3.6 years
类型 internet

技术详情

分类 Payload
质量 305.00 kg
干质量 290.00 kg
总质量 305.00 kg
长度 0.20 m
直径 2.80 m
跨度 9.00 m
形状 Box + pan
制造商 SPXS
平台类型 Starlink
阶段状态 In Orbit
所有者/国家 SPXS/US

Most Searched